[[{"header":{"parameterUnit":"m.s-1","parameterCategory":1,"la1":30.2991,"la2":30.254,"lo1":-89.0895,"lo2":-89.0444,"dy":0.0017,"dx":0.0017,"nx":28,"ny":28,"refTime":"2025-07-07T09:00:00:Z","depth":0,"parameterNumber":2,"parameterNumberName":"U-component_of_WINDS"},"data":[0,0,0,0,0,0,0,0,0,0,0,0,0,0,0,0,0,0,0,0,0,0,0,0,0,0,0,0,0,0,0,0,0,0,0,0,0,0,0,0,0,0,0,0,0,0,0,0,0,0,0,0,0,0,0,0,0,0,2.9332,2.9332,0,2.938,2.938,2.9381,2.9303,2.93,2.9298,2.9295,2.9346,2.935,2.9354,0,0,0,0,0,0,0,0,0,0,0,0,0,2.917,2.9174,2.9331,2.9332,2.9333,2.938,2.938,2.9381,2.9303,2.93,2.9297,2.9294,2.9345,2.9349,2.9354,0,0,0,0,0,0,0,0,0,0,0,0,0,2.9232,2.9175,2.9331,2.9299,2.9297,2.938,2.938,2.9381,2.9304,2.93,2.9296,2.9292,2.9343,2.9349,2.9355,2.9471,0,0,2.9372,2.9375,0,0,0,0,0,0,0,0,2.9229,2.9238,2.9304,2.9302,2.9299,2.9331,2.9342,2.9412,2.9305,2.9302,2.9295,2.929,2.9345,2.935,2.9368,2.9474,2.9476,2.9373,2.9377,2.9379,2.9381,0,0,0,0,0,0,0,2.9224,2.9235,2.9351,2.9305,2.9302,2.9282,2.9287,2.9355,2.9345,2.9301,2.9296,2.9303,2.9343,2.9363,2.9369,2.9477,2.9373,2.9378,2.9382,2.9384,2.9675,2.9679,0,0,0,0,0,0,2.9224,2.9232,2.9349,2.9352,2.9253,2.9289,2.9293,2.9325,2.9344,2.9343,2.9306,2.9299,2.9355,2.9362,2.937,2.9504,2.9379,2.9384,2.9388,2.9671,2.9676,2.9681,0,0,0,0,0,0,2.9221,2.9235,2.9347,2.9291,2.9303,2.9296,2.9332,2.9328,2.9348,2.9347,2.9345,2.9328,2.9352,2.9362,2.9445,2.9505,2.9387,2.9392,2.9666,2.9672,2.9678,2.9775,0,0,0,0,0,0,2.9217,2.9234,2.9279,2.9292,2.9307,2.9422,2.9336,2.9332,2.9358,2.9349,2.9368,2.9367,2.9349,2.9437,2.9451,2.9511,2.9397,2.966,2.9669,2.9676,2.9766,2.9784,2.9799,0,0,0,0,0,2.9211,2.9306,2.9282,2.9296,2.9362,2.9426,2.9434,2.9411,2.9363,2.9407,2.9406,2.9366,2.9496,2.9446,2.9462,2.9524,2.9656,2.9666,2.9676,2.9759,2.978,2.9798,0,0,0,0,0,0,2.9302,2.9307,2.9281,2.9383,2.9404,2.9413,2.9468,2.9435,2.9472,2.9462,2.9433,2.9437,2.9526,2.9534,2.9478,2.9635,2.9568,2.9581,2.9626,2.9647,2.9663,2.9658,2.9402,0,0,0,0,0,2.9333,2.9384,2.9387,2.9476,2.9488,2.9476,2.9503,2.9483,2.9505,2.9514,2.9519,2.9542,2.9587,2.9618,2.966,2.9767,2.9768,2.9817,2.9834,2.9847,2.9858,2.9911,2.9932,2.9712,2.9712,2.9712,0,0,2.94,2.9409,2.9443,2.9494,2.9509,2.9561,2.9485,2.9545,2.9582,2.9523,2.9601,2.9606,2.9629,2.9723,2.9766,2.9732,2.9919,2.9859,2.987,2.9873,2.9923,2.9944,2.9962,2.9718,2.9717,2.9716,0,0,2.9546,2.956,2.9633,2.9649,2.9671,2.9662,2.9679,2.9692,2.9692,2.977,2.9725,2.977,2.985,2.9867,2.9886,3.0035,2.9999,3.005,3.0134,3.0186,3.0203,3.0219,3.0268,3.0287,3.0061,3.0062,3.0062,0,2.9626,2.9703,2.9676,2.9737,2.976,2.9707,2.978,2.9797,2.9832,2.9848,2.9811,2.9907,2.9919,3.0015,3.0051,3.0069,3.0087,3.0047,3.0203,3.0218,3.0232,3.0279,3.0298,3.0068,3.0067,3.0066,3.0066,0,2.9797,2.9851,2.9908,2.9941,2.997,3.0038,3.002,3.0053,3.003,3.0025,3.0102,3.0115,3.0156,3.0178,3.0158,3.0271,3.0248,3.0208,3.014,3.0259,3.0302,3.032,3.0076,3.0074,3.0072,3.0071,0,0,3.0003,3.0017,3.0039,3.0051,3.007,3.0111,3.0175,3.0214,3.0241,3.0267,3.0318,3.0385,3.0346,3.0368,3.0349,3.0395,3.0508,3.0348,3.0348,3.0374,3.0628,3.0656,3.0678,3.0484,3.0488,3.049,3.0625,0,3.0145,3.0254,3.0231,3.0338,3.0385,3.0334,3.039,3.0407,3.0403,3.0442,3.0438,3.0485,3.0432,3.0444,3.0487,3.0485,3.0558,3.0475,3.0529,3.0532,3.0522,3.0701,3.0732,3.0859,3.0642,3.0645,3.0647,0,3.0327,3.0356,3.0467,3.0475,3.0494,3.0544,3.0576,3.0615,3.0632,3.0626,3.0649,3.0619,3.0681,3.0614,3.0697,3.0641,3.0662,3.0664,3.0668,3.067,3.0595,3.0705,3.0899,3.0917,3.0675,3.0672,3.067,0,3.046,3.0529,3.0603,3.0615,3.0627,3.0663,3.0669,3.0683,3.0707,3.0735,3.0749,3.0786,3.0805,3.0833,3.0813,3.0767,3.0898,3.0831,3.0893,3.0893,3.0921,3.0919,3.1118,3.094,3.094,3.094,3.0939,0,3.0621,3.069,3.0662,3.0708,3.0782,3.0754,3.0829,3.083,3.0842,3.0885,3.0845,3.0887,3.086,3.0899,3.0885,3.0953,3.0964,3.0959,3.0953,3.0961,3.0961,3.0972,3.0962,3.0945,3.0943,3.0943,3.0942,0,3.0782,3.0767,3.0843,3.0847,3.085,3.0904,3.0907,3.0948,3.0941,3.0996,3.1008,3.0996,3.104,3.1023,3.1071,3.1061,3.1148,3.1133,3.1141,3.1136,3.1198,3.1191,3.1409,3.1434,3.1243,3.1245,3.1247,0,3.0884,3.0935,3.0943,3.0969,3.0978,3.102,3.1043,3.1017,3.1043,3.1065,3.1103,3.1143,3.1173,3.1245,3.124,3.1276,3.1259,3.1333,3.1264,3.1268,3.1256,3.1252,3.1255,3.1346,3.1348,3.135,3.1351,0,3.1065,3.1053,3.1088,3.1119,3.1148,3.1172,3.1192,3.1215,3.119,3.1221,3.1264,3.1287,3.1334,3.1373,3.1404,3.141,3.1376,3.1373,3.1389,3.1395,3.1397,3.1393,3.1175,3.1368,3.1366,3.1365,3.1364,3.1364,3.1197,3.1238,3.1249,3.1288,3.13,3.1319,3.1357,3.1353,3.1388,3.1423,3.1406,3.1455,3.1468,3.1505,3.1516,3.1554,3.1525,3.1549,3.1554,3.1559,3.1565,3.1393,3.156,3.1559,3.1559,3.1558,3.1558,0,3.1372,3.1376,3.1412,3.144,3.147,3.1435,3.1455,3.1482,3.1525,3.154,3.157,3.1618,3.1655,3.1652,3.1686,3.1716,3.1701,3.1726,3.1722,3.1723,3.1591,3.1573,3.1737,3.1737,3.1737,3.1737,3.1737,3.1737,3.1466,3.1533,3.1523,3.1595,3.1599,3.1645,3.1659,3.1676,3.1687,3.1742,3.1771,3.1769,3.1776,3.181,3.1841,3.184,3.1852,3.1882,3.1874,3.1751,3.1733,3.1716,3.1698,3.1886,3.1886,3.2002,3.2003,3.2004]},{"header":{"parameterUnit":"m.s-1","parameterCategory":1,"la1":30.2991,"la2":30.254,"lo1":-89.0895,"lo2":-89.0444,"dy":0.0017,"dx":0.0017,"nx":28,"ny":28,"refTime":"2025-07-07T09:00:00:Z","depth":0,"parameterNumber":3,"parameterNumberName":"V-component_of_WINDS"},"data":[0,0,0,0,0,0,0,0,0,0,0,0,0,0,0,0,0,0,0,0,0,0,0,0,0,0,0,0,0,0,0,0,0,0,0,0,0,0,0,0,0,0,0,0,0,0,0,0,0,0,0,0,0,0,0,0,0,0,5.114,5.114,0,5.1166,5.1166,5.1166,5.1098,5.1095,5.1093,5.1091,5.1116,5.1119,5.1121,0,0,0,0,0,0,0,0,0,0,0,0,0,5.1028,5.103,5.114,5.114,5.114,5.1166,5.1166,5.1166,5.1098,5.1095,5.1093,5.109,5.1115,5.1118,5.1122,0,0,0,0,0,0,0,0,0,0,0,0,0,5.1067,5.1031,5.114,5.1109,5.1107,5.1165,5.1166,5.1166,5.1099,5.1095,5.1092,5.1089,5.1114,5.1118,5.1122,5.121,0,0,5.1134,5.1136,0,0,0,0,0,0,0,0,5.1065,5.1072,5.1114,5.1112,5.1109,5.1125,5.1135,5.1181,5.1099,5.1102,5.1091,5.1088,5.1122,5.1125,5.1137,5.1212,5.1213,5.1134,5.1137,5.1139,5.114,0,0,0,0,0,0,0,5.1063,5.107,5.115,5.1114,5.1111,5.1093,5.1095,5.1144,5.1129,5.1101,5.1096,5.11,5.112,5.1133,5.1137,5.1213,5.1134,5.1138,5.114,5.1142,5.1358,5.1361,0,0,0,0,0,0,5.1064,5.1068,5.1149,5.1151,5.1079,5.1098,5.11,5.1123,5.1129,5.1126,5.1103,5.1097,5.1128,5.1132,5.1137,5.1238,5.1139,5.1142,5.1145,5.1355,5.1359,5.1362,0,0,0,0,0,0,5.1062,5.1072,5.1148,5.1108,5.1116,5.1103,5.113,5.1125,5.1138,5.113,5.1127,5.1119,5.1125,5.1132,5.1192,5.1238,5.1144,5.1148,5.1351,5.1356,5.136,5.1442,0,0,0,0,0,0,5.1059,5.1072,5.1106,5.1109,5.1119,5.1204,5.1132,5.1128,5.1146,5.1138,5.1144,5.1142,5.1123,5.1186,5.1196,5.1242,5.1151,5.1346,5.1353,5.1359,5.1435,5.145,5.1462,0,0,0,0,0,5.1055,5.1129,5.1108,5.1118,5.1162,5.1206,5.1212,5.1189,5.115,5.1183,5.1177,5.1142,5.1232,5.1193,5.1203,5.1251,5.1343,5.1351,5.1358,5.143,5.1447,5.1461,0,0,0,0,0,0,5.1131,5.1129,5.1106,5.1183,5.1195,5.1195,5.1237,5.1208,5.1232,5.1224,5.1194,5.1196,5.1261,5.1262,5.1219,5.1335,5.1281,5.1291,5.1331,5.1348,5.1361,5.1358,5.1154,0,0,0,0,0,5.1157,5.1194,5.119,5.1258,5.1265,5.125,5.1269,5.125,5.1261,5.1266,5.1265,5.1277,5.1307,5.1328,5.1356,5.1436,5.1435,5.1474,5.1487,5.1498,5.1506,5.1545,5.1561,5.1387,5.1387,5.1387,0,0,5.1211,5.1214,5.1239,5.1273,5.1281,5.1318,5.1255,5.1299,5.1325,5.1273,5.1328,5.1328,5.1339,5.1409,5.144,5.1412,5.1554,5.1507,5.1516,5.1518,5.1554,5.1571,5.1585,5.1392,5.1391,5.1391,0,0,5.1326,5.1334,5.139,5.1398,5.141,5.1399,5.1412,5.1416,5.1413,5.1469,5.1429,5.1461,5.1515,5.1524,5.1535,5.1652,5.1619,5.1662,5.173,5.1768,5.1782,5.1794,5.1832,5.1847,5.1671,5.1671,5.1671,0,5.1391,5.1447,5.1422,5.1467,5.1482,5.1436,5.1491,5.15,5.1521,5.1531,5.1501,5.1565,5.157,5.1639,5.1667,5.168,5.1692,5.166,5.1782,5.1794,5.1804,5.1841,5.1856,5.1676,5.1675,5.1675,5.1674,0,5.1524,5.1563,5.1607,5.1626,5.1646,5.1697,5.1677,5.1701,5.168,5.1672,5.1727,5.1731,5.1757,5.1773,5.1754,5.1839,5.1821,5.1787,5.1731,5.1826,5.186,5.1874,5.1683,5.1681,5.168,5.1678,0,0,5.1688,5.1692,5.1708,5.1715,5.1724,5.1753,5.18,5.1826,5.1844,5.186,5.1897,5.1943,5.191,5.1923,5.1905,5.1939,5.2027,5.19,5.1899,5.192,5.2117,5.2141,5.2157,5.2006,5.2009,5.2011,5.2115,0,5.1799,5.188,5.1857,5.1937,5.1971,5.1927,5.1967,5.1976,5.197,5.1997,5.1989,5.2021,5.1978,5.1984,5.2017,5.2009,5.2065,5.2002,5.2038,5.2039,5.2033,5.2175,5.2201,5.2299,5.2128,5.2131,5.2132,0,5.194,5.196,5.2042,5.2043,5.2056,5.2093,5.2113,5.214,5.2148,5.2141,5.2155,5.2128,5.2172,5.2119,5.2177,5.2135,5.2148,5.2147,5.215,5.215,5.209,5.2176,5.233,5.2344,5.2153,5.2152,5.215,0,5.2047,5.2095,5.2149,5.2157,5.216,5.2186,5.2188,5.2193,5.2209,5.2227,5.2236,5.226,5.2271,5.2289,5.2269,5.2232,5.233,5.2275,5.2323,5.2323,5.2343,5.2341,5.2498,5.2357,5.2357,5.2357,5.2356,0,5.2172,5.2224,5.2196,5.223,5.2285,5.2259,5.2314,5.2312,5.2316,5.2347,5.2312,5.2341,5.2314,5.2341,5.2326,5.2375,5.2381,5.2375,5.237,5.2376,5.2377,5.2383,5.2374,5.2361,5.236,5.2359,5.2358,0,5.23,5.2285,5.234,5.2338,5.2338,5.2379,5.2376,5.2406,5.2396,5.2436,5.2443,5.2428,5.2458,5.244,5.247,5.2459,5.2523,5.251,5.252,5.2515,5.2562,5.2557,5.2726,5.2745,5.2595,5.2597,5.2598,0,5.2379,5.2418,5.2418,5.2436,5.244,5.247,5.2486,5.2461,5.2478,5.249,5.2518,5.2544,5.2563,5.2612,5.2603,5.2625,5.2611,5.2668,5.2614,5.2618,5.2607,5.2604,5.2606,5.2678,5.268,5.2682,5.2683,0,5.2521,5.251,5.2534,5.2554,5.2574,5.2589,5.2601,5.2617,5.2592,5.2614,5.2643,5.2658,5.2688,5.2713,5.2732,5.2733,5.2703,5.27,5.2712,5.2718,5.272,5.2716,5.2546,5.2696,5.2695,5.2694,5.2693,5.2693,5.2624,5.2655,5.2659,5.2686,5.2692,5.2704,5.273,5.2724,5.2748,5.2769,5.2754,5.2788,5.2793,5.2814,5.2819,5.2844,5.2821,5.2839,5.2843,5.2847,5.2851,5.2719,5.2848,5.2848,5.2847,5.2847,5.2847,0,5.276,5.2761,5.2786,5.2803,5.2823,5.2794,5.2805,5.2824,5.2854,5.2862,5.2881,5.2913,5.2937,5.293,5.2951,5.2973,5.296,5.2979,5.2976,5.2976,5.2873,5.2859,5.2989,5.2989,5.2989,5.2989,5.2989,5.2989,5.2833,5.2882,5.2872,5.2923,5.2923,5.2955,5.2963,5.2973,5.2979,5.3016,5.3036,5.3031,5.3032,5.3052,5.3073,5.307,5.3078,5.3102,5.3094,5.2997,5.2983,5.297,5.2956,5.3105,5.3105,5.3194,5.3195,5.3195]}]]